Terug naar catalogus

DMSP 5D-2 F13 DEB

ActiefSSO
NORAD 40676·DEBRIS·🇺🇸 United States

Gelanceerd Mar 24, 1995 vanaf Vandenberg Space Force Base

Loading…

Volgende Passages (komende 24 uur)

TLE

VersSource: Space-Track

Epoch: Sep 12, 2026, 08:51 UTC

1 40676U 95015FQ  26255.36934564  .00002758  00000-0  85956-3 0  9991
2 40676  98.6789 296.8405 0006719 116.8125 243.3751 14.41703663588969

Volg DMSP 5D-2 F13 DEB in realtime met AllMySat

Download on the App Store